Location: Kawakawa
(35.3830°S, 174.0670°E)
Time: 00:44:57
(UTC+13:00)

A-11 Canister half - Pass Details

Date: 13 December 2019
Orbit: 1525 x 1684 km, 47.3° (Epoch: 19 January)

Event Time Altitude Azimuth Distance (km) Brightness Sun altitude
Rises 02:37:59 0° 241° (WSW) 4,728 11.7 -28.5°
Reaches altitude 10° 02:41:18 10° 248° (WSW) 3,757 11.0 -28.2°
Enters shadow 02:47:55 35° 289° (WNW) 2,366 9.6 -27.7°
